BAW22G EGLL-LOWI

Flight info

Callsign BAW22G
Flight time 1h 39m
Altitude 39000
Route DET L6 DVR UL9 KONAN UL607 MATUG DCT BOMBI/N0441F310 T104 WLD M867 BAVAX Z106 MANAL M736 TULSI TULSI3A
Aircraft A20N/M-SDE2E3FGHIRWXY/LB1

Departure

Time 2026-05-04 18:53
Airport London Heathrow Airport (EGLL)

Arrival

Time 2026-05-04 20:33
Airport Innsbruck Airport (LOWI)
Time Latitude Longitude Altitude Speed Heading
2026-05-04 18:19 51.47133 -0.48609 88 ft 0 kts 268°
2026-05-04 18:34 51.47132 -0.48585 88 ft 2 kts 257°
2026-05-04 18:34 51.47132 -0.48576 89 ft 0 kts 301°
2026-05-04 18:34 51.47126 -0.48562 88 ft 3 kts 301°
2026-05-04 18:34 51.47124 -0.48556 87 ft 1 kts 301°
2026-05-04 18:35 51.47119 -0.48542 89 ft 2 kts 284°
2026-05-04 18:35 51.47118 -0.48524 87 ft 2 kts 265°
2026-05-04 18:35 51.47119 -0.48506 88 ft 2 kts 240°
2026-05-04 18:35 51.47126 -0.48491 88 ft 2 kts 210°
2026-05-04 18:36 51.47136 -0.48483 87 ft 2 kts 206°
2026-05-04 18:36 51.47150 -0.48476 86 ft 2 kts 181°
2026-05-04 18:36 51.47153 -0.48476 86 ft 0 kts 181°
2026-05-04 18:38 51.47150 -0.48476 89 ft 2 kts 181°
2026-05-04 18:38 51.47125 -0.48476 89 ft 5 kts 181°
2026-05-04 18:39 51.47077 -0.48477 84 ft 8 kts 180°
2026-05-04 18:39 51.47008 -0.48478 84 ft 11 kts 180°
2026-05-04 18:39 51.46939 -0.48477 84 ft 0 kts 178°
2026-05-04 18:39 51.46926 -0.48476 84 ft 4 kts 177°
2026-05-04 18:40 51.46889 -0.48472 84 ft 7 kts 176°
2026-05-04 18:40 51.46830 -0.48470 86 ft 10 kts 180°
2026-05-04 18:40 51.46825 -0.48470 86 ft 0 kts 180°
2026-05-04 18:47 51.46823 -0.48470 86 ft 1 kts 180°
2026-05-04 18:48 51.46793 -0.48470 86 ft 7 kts 180°
2026-05-04 18:48 51.46730 -0.48470 84 ft 11 kts 180°
2026-05-04 18:48 51.46651 -0.48470 88 ft 10 kts 180°
2026-05-04 18:48 51.46595 -0.48470 89 ft 0 kts 180°
2026-05-04 18:49 51.46585 -0.48470 89 ft 3 kts 180°
2026-05-04 18:49 51.46543 -0.48470 88 ft 10 kts 180°
2026-05-04 18:50 51.46481 -0.48371 87 ft 17 kts 90°
2026-05-04 18:50 51.46480 -0.48271 87 ft 0 kts 91°
2026-05-04 18:52 51.46480 -0.48256 87 ft 4 kts 91°
2026-05-04 18:52 51.46479 -0.48062 84 ft 47 kts 90°
2026-05-04 18:52 51.46485 -0.47179 85 ft 110 kts 89°
2026-05-04 18:52 51.46493 -0.45683 82 ft 156 kts 90°
2026-05-04 18:53 51.46497 -0.43818 463 ft 163 kts 90°
2026-05-04 18:53 51.46375 -0.42049 1089 ft 160 kts 104°
2026-05-04 18:53 51.45948 -0.40406 1674 ft 160 kts 119°
2026-05-04 18:53 51.45405 -0.38810 2154 ft 167 kts 119°
2026-05-04 18:54 51.44836 -0.37139 2683 ft 174 kts 117°
2026-05-04 18:54 51.44410 -0.35272 3249 ft 184 kts 104°
2026-05-04 18:54 51.44089 -0.33249 3844 ft 195 kts 107°
2026-05-04 18:54 51.43665 -0.31128 4509 ft 204 kts 109°
2026-05-04 18:55 51.43185 -0.28888 5101 ft 220 kts 109°
2026-05-04 18:55 51.42315 -0.23626 5746 ft 271 kts 103°
2026-05-04 18:55 51.41907 -0.20653 5851 ft 274 kts 102°
2026-05-04 18:56 51.41506 -0.17672 5946 ft 274 kts 102°
2026-05-04 18:56 51.41101 -0.14673 5978 ft 275 kts 102°
2026-05-04 18:56 51.40688 -0.11686 5979 ft 275 kts 103°
2026-05-04 18:56 51.40272 -0.08721 5978 ft 275 kts 103°
2026-05-04 18:57 51.39851 -0.05744 5979 ft 275 kts 103°
2026-05-04 18:57 51.39426 -0.02746 5978 ft 275 kts 103°
2026-05-04 18:57 51.39003 0.00235 5978 ft 275 kts 103°
2026-05-04 18:57 51.38579 0.03220 5979 ft 275 kts 103°
2026-05-04 18:58 51.38154 0.06205 5997 ft 276 kts 103°
2026-05-04 18:58 51.37724 0.09223 6339 ft 279 kts 103°
2026-05-04 18:58 51.37288 0.12248 7264 ft 278 kts 103°
2026-05-04 18:58 51.36849 0.15278 8233 ft 281 kts 103°
2026-05-04 18:59 51.36403 0.18351 9119 ft 285 kts 103°
2026-05-04 18:59 51.35954 0.21460 10009 ft 289 kts 103°
2026-05-04 18:59 51.35493 0.24671 10586 ft 306 kts 103°
2026-05-04 18:59 51.34999 0.28115 10891 ft 329 kts 103°
2026-05-04 19:00 51.34472 0.31774 11396 ft 343 kts 103°
2026-05-04 19:00 51.33939 0.35472 11535 ft 345 kts 103°
2026-05-04 19:00 51.33396 0.39221 11685 ft 348 kts 103°
2026-05-04 19:00 51.32852 0.42966 12456 ft 348 kts 103°
2026-05-04 19:01 51.32302 0.46746 13303 ft 351 kts 103°
2026-05-04 19:01 51.31743 0.50576 14041 ft 356 kts 103°
2026-05-04 19:01 51.31182 0.54407 14756 ft 360 kts 103°
2026-05-04 19:01 51.30607 0.58326 15479 ft 364 kts 103°
2026-05-04 19:02 51.29946 0.62253 16173 ft 368 kts 106°
2026-05-04 19:02 51.29224 0.66191 16856 ft 371 kts 106°
2026-05-04 19:02 51.28495 0.70175 17521 ft 375 kts 106°
2026-05-04 19:02 51.27760 0.74190 18161 ft 379 kts 106°
2026-05-04 19:03 51.27026 0.78197 18789 ft 382 kts 106°
2026-05-04 19:03 51.26274 0.82288 19402 ft 386 kts 106°
2026-05-04 19:03 51.25515 0.86410 20002 ft 389 kts 106°
2026-05-04 19:03 51.24745 0.90581 20593 ft 393 kts 106°
2026-05-04 19:04 51.23967 0.94780 21148 ft 396 kts 107°
2026-05-04 19:04 51.23183 0.99012 21727 ft 399 kts 107°
2026-05-04 19:04 51.22388 1.03287 22258 ft 403 kts 107°
2026-05-04 19:04 51.21588 1.07580 22792 ft 406 kts 107°
2026-05-04 19:05 51.20777 1.11921 23308 ft 410 kts 107°
2026-05-04 19:05 51.19958 1.16293 23823 ft 413 kts 107°
2026-05-04 19:05 51.19132 1.20698 24305 ft 416 kts 107°
2026-05-04 19:05 51.18299 1.25127 24791 ft 419 kts 107°
2026-05-04 19:06 51.17457 1.29591 25253 ft 422 kts 107°
2026-05-04 19:06 51.16637 1.34109 25708 ft 425 kts 103°
2026-05-04 19:06 51.16126 1.38700 26134 ft 428 kts 96°
2026-05-04 19:06 51.15894 1.43437 26566 ft 430 kts 94°
2026-05-04 19:07 51.15676 1.48207 26974 ft 433 kts 94°
2026-05-04 19:07 51.15449 1.52998 27361 ft 435 kts 94°
2026-05-04 19:07 51.15216 1.57825 27732 ft 438 kts 94°
2026-05-04 19:07 51.14979 1.62670 28107 ft 441 kts 94°
2026-05-04 19:08 51.14737 1.67554 28458 ft 443 kts 94°
2026-05-04 19:08 51.14491 1.72466 28797 ft 445 kts 95°
2026-05-04 19:08 51.14243 1.77404 29124 ft 448 kts 95°
2026-05-04 19:08 51.13992 1.82352 29438 ft 450 kts 95°
2026-05-04 19:09 51.13739 1.87288 29743 ft 452 kts 95°
2026-05-04 19:09 51.13481 1.92293 30051 ft 454 kts 95°
2026-05-04 19:09 51.13220 1.97313 30357 ft 456 kts 95°
2026-05-04 19:09 51.12956 2.02355 30660 ft 458 kts 95°
2026-05-04 19:10 51.12687 2.07428 30960 ft 461 kts 95°
2026-05-04 19:10 51.12415 2.12521 31295 ft 461 kts 95°
2026-05-04 19:10 51.12144 2.17555 31675 ft 461 kts 95°
2026-05-04 19:10 51.11868 2.22640 32063 ft 460 kts 95°
2026-05-04 19:11 51.11590 2.27711 32438 ft 459 kts 95°
2026-05-04 19:11 51.11311 2.32774 32799 ft 458 kts 95°
2026-05-04 19:11 51.11030 2.37834 33148 ft 458 kts 95°
2026-05-04 19:11 51.10748 2.42875 33485 ft 457 kts 95°
2026-05-04 19:12 51.10463 2.47909 33810 ft 456 kts 95°
2026-05-04 19:12 51.09890 2.57943 34426 ft 455 kts 95°
2026-05-04 19:12 51.09572 2.62957 34711 ft 454 kts 98°
2026-05-04 19:13 51.08979 2.67900 34906 ft 454 kts 104°
2026-05-04 19:13 51.07247 2.77466 35000 ft 452 kts 106°
2026-05-04 19:14 51.05500 2.87090 34997 ft 455 kts 106°
2026-05-04 19:14 51.04029 2.95161 35001 ft 464 kts 106°
2026-05-04 19:15 51.02224 3.05017 35000 ft 463 kts 106°
2026-05-04 19:15 51.00105 3.16506 34998 ft 464 kts 106°
2026-05-04 19:16 50.98592 3.24667 34998 ft 464 kts 106°
2026-05-04 19:16 50.96761 3.34497 35000 ft 464 kts 107°
2026-05-04 19:17 50.94935 3.44245 35002 ft 464 kts 107°
2026-05-04 19:17 50.93087 3.54062 34995 ft 468 kts 107°
2026-05-04 19:18 50.91210 3.63983 35005 ft 469 kts 107°
2026-05-04 19:18 50.89313 3.73873 35001 ft 469 kts 107°
2026-05-04 19:19 50.87396 3.83769 35002 ft 470 kts 107°
2026-05-04 19:19 50.85477 3.93646 34995 ft 470 kts 107°
2026-05-04 19:20 50.83573 4.03394 34997 ft 469 kts 107°
2026-05-04 19:20 50.81638 4.13253 35003 ft 470 kts 107°
2026-05-04 19:21 50.79692 4.23118 34998 ft 470 kts 107°
2026-05-04 19:21 50.77741 4.32960 34998 ft 469 kts 107°
2026-05-04 19:22 50.75790 4.42750 35000 ft 470 kts 107°
2026-05-04 19:22 50.73818 4.52596 34998 ft 470 kts 108°
2026-05-04 19:23 50.71846 4.62413 35005 ft 470 kts 107°
2026-05-04 19:23 50.69938 4.72267 34998 ft 470 kts 107°
2026-05-04 19:24 50.68030 4.82143 35002 ft 470 kts 107°
2026-05-04 19:24 50.66108 4.91991 34995 ft 470 kts 107°
2026-05-04 19:25 50.64113 5.01804 35002 ft 470 kts 108°
2026-05-04 19:25 50.62081 5.11605 34998 ft 470 kts 108°
2026-05-04 19:26 50.60062 5.21347 34995 ft 470 kts 108°
2026-05-04 19:26 50.58025 5.31147 35006 ft 471 kts 108°
2026-05-04 19:27 50.55982 5.40931 35004 ft 470 kts 108°
2026-05-04 19:27 50.53930 5.50709 34999 ft 471 kts 108°
2026-05-04 19:28 50.51884 5.60424 34994 ft 470 kts 107°
2026-05-04 19:28 50.50425 5.70463 35006 ft 471 kts 101°
2026-05-04 19:29 50.49139 5.80553 34999 ft 471 kts 101°
2026-05-04 19:29 50.47825 5.90644 34996 ft 472 kts 102°
2026-05-04 19:30 50.46497 6.00766 35005 ft 473 kts 102°
2026-05-04 19:30 50.45161 6.10875 34996 ft 473 kts 102°
2026-05-04 19:31 50.43824 6.20917 34996 ft 473 kts 102°
2026-05-04 19:31 50.42468 6.31037 34998 ft 473 kts 102°
2026-05-04 19:32 50.41100 6.41148 34997 ft 474 kts 102°
2026-05-04 19:32 50.39707 6.51249 34996 ft 473 kts 102°
2026-05-04 19:33 50.38322 6.61259 34996 ft 473 kts 102°
2026-05-04 19:33 50.36919 6.71326 35004 ft 472 kts 102°
2026-05-04 19:34 50.35509 6.81375 35005 ft 472 kts 102°
2026-05-04 19:34 50.34092 6.91410 34997 ft 473 kts 102°
2026-05-04 19:35 50.32662 7.01465 34996 ft 473 kts 102°
2026-05-04 19:35 50.31225 7.11500 34996 ft 472 kts 103°
2026-05-04 19:36 50.29783 7.21510 34996 ft 472 kts 103°
2026-05-04 19:36 50.28332 7.31513 34997 ft 471 kts 103°
2026-05-04 19:37 50.26884 7.41429 34999 ft 471 kts 103°
2026-05-04 19:37 50.25417 7.51414 35005 ft 472 kts 103°
2026-05-04 19:38 50.23942 7.61385 34995 ft 470 kts 103°
2026-05-04 19:38 50.22458 7.71356 34998 ft 472 kts 103°
2026-05-04 19:39 50.20963 7.81340 34998 ft 471 kts 103°
2026-05-04 19:39 50.19458 7.91320 35007 ft 472 kts 103°
2026-05-04 19:40 50.17945 8.01299 35005 ft 473 kts 103°
2026-05-04 19:40 50.16422 8.11272 34996 ft 472 kts 103°
2026-05-04 19:41 50.14903 8.21162 35000 ft 472 kts 103°
2026-05-04 19:41 50.13363 8.31130 35001 ft 472 kts 103°
2026-05-04 19:42 50.11818 8.41064 34996 ft 471 kts 103°
2026-05-04 19:42 50.10276 8.50920 35001 ft 470 kts 104°
2026-05-04 19:43 50.08719 8.60812 34996 ft 470 kts 104°
2026-05-04 19:43 50.07165 8.70629 35000 ft 470 kts 104°
2026-05-04 19:44 50.04837 8.80088 34997 ft 470 kts 120°
2026-05-04 19:44 50.00801 8.88053 35007 ft 470 kts 134°
2026-05-04 19:45 49.96302 8.95419 34995 ft 470 kts 133°
2026-05-04 19:45 49.91811 9.02789 34995 ft 470 kts 134°
2026-05-04 19:46 49.87324 9.10126 35004 ft 470 kts 134°
2026-05-04 19:46 49.82797 9.17503 34994 ft 469 kts 134°
2026-05-04 19:47 49.78285 9.24833 34998 ft 471 kts 134°
2026-05-04 19:47 49.73764 9.32156 35003 ft 470 kts 134°
2026-05-04 19:48 49.68686 9.38360 34832 ft 471 kts 153°
2026-05-04 19:48 49.65657 9.40214 34393 ft 464 kts 166°
2026-05-04 19:48 49.62468 9.41041 34003 ft 465 kts 178°
2026-05-04 19:48 49.59234 9.40790 33874 ft 467 kts 190°
2026-05-04 19:49 49.56097 9.39458 34082 ft 467 kts 202°
2026-05-04 19:49 49.53214 9.37165 34372 ft 466 kts 212°
2026-05-04 19:49 49.50492 9.34440 34664 ft 465 kts 213°
2026-05-04 19:49 49.47821 9.31730 34890 ft 465 kts 213°
2026-05-04 19:50 49.45128 9.28998 34975 ft 463 kts 213°
2026-05-04 19:50 49.39748 9.23548 35001 ft 462 kts 213°
2026-05-04 19:51 49.34383 9.18151 34666 ft 459 kts 211°
2026-05-04 19:51 49.31507 9.16071 34015 ft 459 kts 199°
2026-05-04 19:51 49.28395 9.14935 33248 ft 460 kts 187°
2026-05-04 19:51 49.25195 9.14805 32399 ft 462 kts 175°
2026-05-04 19:52 49.22044 9.15727 31784 ft 458 kts 162°
2026-05-04 19:52 49.19126 9.17690 31685 ft 464 kts 150°
2026-05-04 19:52 49.16480 9.20591 31587 ft 472 kts 138°
2026-05-04 19:52 49.14265 9.24270 31470 ft 471 kts 126°
2026-05-04 19:53 49.12586 9.28567 31361 ft 472 kts 114°
2026-05-04 19:53 49.11517 9.33300 31254 ft 473 kts 102°
2026-05-04 19:53 49.11104 9.38259 31139 ft 473 kts 91°
2026-05-04 19:53 49.11360 9.43246 31038 ft 475 kts 79°
2026-05-04 19:54 49.12019 9.48217 31000 ft 478 kts 78°
2026-05-04 19:54 49.12967 9.58243 31001 ft 476 kts 85°
2026-05-04 19:55 49.13328 9.68307 31000 ft 477 kts 88°
2026-05-04 19:55 49.13521 9.78401 31000 ft 477 kts 88°
2026-05-04 19:56 49.13699 9.88550 31000 ft 476 kts 88°
2026-05-04 19:56 49.13875 9.98678 31000 ft 477 kts 88°
2026-05-04 19:57 49.14046 10.08809 31000 ft 477 kts 88°
2026-05-04 19:57 49.13819 10.18840 31001 ft 477 kts 102°
2026-05-04 19:57 49.12863 10.23687 31000 ft 477 kts 113°
2026-05-04 19:58 49.11300 10.28137 31000 ft 477 kts 124°
2026-05-04 19:58 49.06902 10.35705 31000 ft 477 kts 134°
2026-05-04 19:59 49.03074 10.41846 31001 ft 477 kts 134°
2026-05-04 19:59 48.98532 10.49117 31001 ft 477 kts 134°
2026-05-04 20:00 48.93948 10.56420 31000 ft 476 kts 134°
2026-05-04 20:00 48.89360 10.63711 31000 ft 476 kts 134°
2026-05-04 20:01 48.84767 10.70992 31000 ft 476 kts 134°
2026-05-04 20:01 48.80200 10.78210 31000 ft 477 kts 134°
2026-05-04 20:02 48.75592 10.85446 31000 ft 477 kts 134°
2026-05-04 20:02 48.70977 10.92666 31001 ft 476 kts 134°
2026-05-04 20:03 48.66360 10.99867 31001 ft 476 kts 134°
2026-05-04 20:03 48.61732 11.07058 31000 ft 476 kts 134°
2026-05-04 20:04 48.57175 11.14241 31001 ft 476 kts 131°
2026-05-04 20:04 48.52839 11.21798 30995 ft 476 kts 131°
2026-05-04 20:05 48.48524 11.29293 30811 ft 463 kts 131°
2026-05-04 20:05 48.46430 11.32920 30192 ft 457 kts 131°
2026-05-04 20:05 48.44350 11.36516 29617 ft 453 kts 131°
2026-05-04 20:05 48.42287 11.40077 29028 ft 449 kts 131°
2026-05-04 20:06 48.40264 11.43564 28437 ft 445 kts 131°
2026-05-04 20:06 48.38231 11.47064 27841 ft 441 kts 131°
2026-05-04 20:06 48.36218 11.50526 27240 ft 437 kts 131°
2026-05-04 20:06 48.34227 11.53944 26645 ft 433 kts 131°
2026-05-04 20:07 48.32250 11.57335 26051 ft 429 kts 131°
2026-05-04 20:07 48.30294 11.60685 25473 ft 425 kts 131°
2026-05-04 20:07 48.28315 11.63963 24884 ft 421 kts 136°
2026-05-04 20:07 48.26013 11.66636 24286 ft 417 kts 149°
2026-05-04 20:08 48.23402 11.68467 23696 ft 413 kts 162°
2026-05-04 20:08 48.20632 11.69518 23106 ft 409 kts 167°
2026-05-04 20:08 48.17870 11.70453 22527 ft 405 kts 167°
2026-05-04 20:08 48.15167 11.71374 21963 ft 402 kts 167°
2026-05-04 20:09 48.12451 11.72303 21392 ft 398 kts 167°
2026-05-04 20:09 48.09762 11.73224 20821 ft 395 kts 167°
2026-05-04 20:09 48.07098 11.74136 20373 ft 388 kts 167°
2026-05-04 20:09 48.04483 11.75031 20284 ft 384 kts 167°
2026-05-04 20:10 48.01865 11.75925 20042 ft 390 kts 167°
2026-05-04 20:10 47.99206 11.76832 19666 ft 392 kts 167°
2026-05-04 20:10 47.96555 11.77736 19291 ft 388 kts 167°
2026-05-04 20:10 47.93940 11.78627 18916 ft 384 kts 167°
2026-05-04 20:11 47.91339 11.79469 18536 ft 382 kts 171°
2026-05-04 20:11 47.88704 11.79879 18165 ft 380 kts 178°
2026-05-04 20:11 47.86060 11.79800 17781 ft 378 kts 183°
2026-05-04 20:11 47.83439 11.79633 17280 ft 376 kts 182°
2026-05-04 20:12 47.80836 11.79477 16783 ft 372 kts 182°
2026-05-04 20:12 47.78271 11.79329 16285 ft 368 kts 182°
2026-05-04 20:12 47.75705 11.79184 15784 ft 368 kts 182°
2026-05-04 20:12 47.73152 11.79042 15283 ft 365 kts 181°
2026-05-04 20:13 47.70630 11.79226 14785 ft 363 kts 172°
2026-05-04 20:13 47.68162 11.80012 14291 ft 361 kts 163°
2026-05-04 20:13 47.65810 11.81284 13783 ft 358 kts 159°
2026-05-04 20:13 47.63514 11.82591 13287 ft 357 kts 159°
2026-05-04 20:14 47.61167 11.83914 12783 ft 355 kts 159°
2026-05-04 20:14 47.58895 11.85188 12290 ft 352 kts 160°
2026-05-04 20:14 47.56583 11.86481 11784 ft 349 kts 160°
2026-05-04 20:14 47.54351 11.87727 11291 ft 346 kts 160°
2026-05-04 20:15 47.52102 11.88982 10790 ft 344 kts 160°
2026-05-04 20:15 47.49876 11.90212 10339 ft 340 kts 161°
2026-05-04 20:15 47.47649 11.91289 10229 ft 338 kts 168°
2026-05-04 20:15 47.45305 11.91406 10139 ft 337 kts 190°
2026-05-04 20:16 47.43126 11.90255 9880 ft 332 kts 212°
2026-05-04 20:16 47.41476 11.88008 9752 ft 318 kts 235°
2026-05-04 20:16 47.40612 11.85110 9622 ft 304 kts 259°
2026-05-04 20:16 47.40593 11.82076 9537 ft 289 kts 277°
2026-05-04 20:17 47.40855 11.79171 9505 ft 286 kts 276°
2026-05-04 20:17 47.40981 11.76231 9559 ft 290 kts 270°
2026-05-04 20:17 47.40903 11.73235 10070 ft 293 kts 265°
2026-05-04 20:17 47.40693 11.70264 10833 ft 299 kts 263°
2026-05-04 20:18 47.40415 11.67225 11003 ft 298 kts 262°
2026-05-04 20:18 47.40104 11.64198 11167 ft 300 kts 261°
2026-05-04 20:18 47.39783 11.61164 11321 ft 298 kts 261°
2026-05-04 20:18 47.39463 11.58132 11467 ft 300 kts 261°
2026-05-04 20:19 47.39145 11.55095 11601 ft 299 kts 261°
2026-05-04 20:19 47.38834 11.52128 11723 ft 300 kts 261°
2026-05-04 20:19 47.38512 11.49047 11850 ft 305 kts 261°
2026-05-04 20:19 47.38189 11.45961 11965 ft 304 kts 261°
2026-05-04 20:20 47.37869 11.42891 12008 ft 302 kts 261°
2026-05-04 20:20 47.37548 11.39826 12007 ft 300 kts 261°
2026-05-04 20:20 47.37230 11.36789 12007 ft 300 kts 261°
2026-05-04 20:20 47.36910 11.33745 12007 ft 302 kts 261°
2026-05-04 20:21 47.36590 11.30718 12003 ft 301 kts 261°
2026-05-04 20:21 47.36269 11.27679 11800 ft 299 kts 261°
2026-05-04 20:21 47.35629 11.21644 11100 ft 295 kts 261°
2026-05-04 20:22 47.35310 11.18657 10670 ft 294 kts 261°
2026-05-04 20:22 47.34993 11.15689 10277 ft 292 kts 261°
2026-05-04 20:22 47.34679 11.12766 10158 ft 290 kts 261°
2026-05-04 20:22 47.34361 11.09799 10054 ft 294 kts 261°
2026-05-04 20:23 47.34041 11.06825 10011 ft 294 kts 261°
2026-05-04 20:23 47.33721 11.03857 10005 ft 291 kts 261°
2026-05-04 20:23 47.33402 11.00915 10007 ft 292 kts 261°
2026-05-04 20:23 47.33087 10.98013 10008 ft 292 kts 261°
2026-05-04 20:24 47.32767 10.95066 10003 ft 291 kts 261°
2026-05-04 20:24 47.32444 10.92108 10015 ft 293 kts 261°
2026-05-04 20:24 47.32120 10.89139 10006 ft 292 kts 261°
2026-05-04 20:24 47.31798 10.86193 10004 ft 291 kts 261°
2026-05-04 20:25 47.31395 10.83285 10013 ft 290 kts 249°
2026-05-04 20:25 47.30316 10.80800 10007 ft 293 kts 224°
2026-05-04 20:25 47.28588 10.79213 10006 ft 294 kts 198°
2026-05-04 20:25 47.26585 10.78879 10008 ft 291 kts 173°
2026-05-04 20:26 47.24673 10.79861 10005 ft 296 kts 147°
2026-05-04 20:26 47.23208 10.81990 10008 ft 297 kts 122°
2026-05-04 20:26 47.22521 10.84743 10003 ft 288 kts 96°
2026-05-04 20:26 47.22665 10.87636 9544 ft 286 kts 71°
2026-05-04 20:27 47.23671 10.90160 9205 ft 293 kts 48°
2026-05-04 20:27 47.25096 10.92289 9018 ft 290 kts 42°
2026-05-04 20:27 47.26583 10.94282 8917 ft 287 kts 41°
2026-05-04 20:27 47.27992 10.96365 8878 ft 288 kts 52°
2026-05-04 20:28 47.28988 10.98919 8570 ft 288 kts 69°
2026-05-04 20:28 47.29445 11.01775 8184 ft 286 kts 85°
2026-05-04 20:28 47.29393 11.04624 7786 ft 270 kts 96°
2026-05-04 20:28 47.29095 11.07284 7247 ft 258 kts 103°
2026-05-04 20:29 47.28667 11.09840 6422 ft 256 kts 104°
2026-05-04 20:29 47.28227 11.12287 5705 ft 243 kts 106°
2026-05-04 20:29 47.27733 11.14563 5162 ft 225 kts 109°
2026-05-04 20:29 47.27258 11.16706 4611 ft 216 kts 107°
2026-05-04 20:30 47.26832 11.18880 4202 ft 228 kts 105°
2026-05-04 20:30 47.26412 11.21042 3838 ft 210 kts 105°
2026-05-04 20:30 47.26064 11.22976 3657 ft 182 kts 104°
2026-05-04 20:30 47.25798 11.24687 3461 ft 158 kts 101°
2026-05-04 20:31 47.25605 11.26209 3192 ft 147 kts 99°
2026-05-04 20:31 47.25497 11.27670 2896 ft 142 kts 94°
2026-05-04 20:31 47.25474 11.29096 2608 ft 138 kts 86°
2026-05-04 20:31 47.25589 11.30511 2374 ft 141 kts 81°
2026-05-04 20:32 47.25758 11.31919 2130 ft 139 kts 80°
2026-05-04 20:32 47.25911 11.33318 1910 ft 136 kts 80°
2026-05-04 20:32 47.26035 11.34420 1907 ft 79 kts 81°
2026-05-04 20:32 47.26095 11.35038 1903 ft 52 kts 82°
2026-05-04 20:33 47.26118 11.35351 1906 ft 22 kts 81°
2026-05-04 20:33 47.26154 11.35632 1894 ft 23 kts 80°
2026-05-04 20:33 47.26144 11.35722 1895 ft 11 kts 145°
2026-05-04 20:33 47.26115 11.35698 1906 ft 8 kts 252°
2026-05-04 20:34 47.26128 11.35509 1897 ft 28 kts 281°
2026-05-04 20:34 47.26107 11.35267 1897 ft 8 kts 222°
2026-05-04 20:34 47.26036 11.35264 1902 ft 12 kts 172°
2026-05-04 20:34 47.25945 11.35283 1899 ft 15 kts 172°
2026-05-04 20:35 47.25889 11.35187 1903 ft 15 kts 263°
2026-05-04 20:35 47.25872 11.35046 1906 ft 15 kts 261°
2026-05-04 20:35 47.25840 11.34929 1901 ft 10 kts 198°